Flag for Kazakhstan Weather past 2 weeks in Shymkent, Kazakhstan

Now
90 °F

Sunny.


Feels Like: 86 °F
Forecast: 63 / 98 °F
Wind: 8 mph from Northwest

Location: Shymkent Airport

Current Time: Jul 25, 2014 at 3:49:18 PM

Latest Report: Jul 25, 2014 at 3:00 PM


Visibility: 10 mi

Pressure: 29.83 "Hg

Humidity: 9%

Dew point: 23 °F

Location of ShymkentLocation

Historic Weather in Shymkent — Graph

°F

Shymkent temperature yesterday

Maximum temperature yesterday: 86 °F (at 1:00 PM)
Minimum temperature yesterday: 63 °F (at 5:30 AM)
Average temperature yesterday: 77 °F

Past Weeks' High & Low Weather Summary

 TemperatureHumidityPressure
High106 °F (Jul 10, 2:00 PM)60% (Jul 13, 6:00 AM)29.92 "Hg (Jul 13, 6:00 AM)
Low57 °F (Jul 18, 6:00 AM)6% (Jul 22, 4:00 PM)29.59 "Hg (Jul 10, 6:00 PM)
Average81 °F23%29.75 "Hg
* Reported Jul 10 2:00 PM — Jul 25 2:30 PM, Shymkent, Weather by CustomWeather, © 2014

Note: Actual official high and low records may vary slightly from our data, if they occured in-between our weather recording intervals... More about our weather records

Advertising

Shymkent weather history for previous 24 hours

 ConditionsComfort  
Time TempWeatherWind HumidityBarometerVisibility
2:30 PM
Jul 25
90 °FSunny.8 mph11%29.83 "Hg10 mi
2:00 PM90 °FSunny.8 mph11%29.83 "Hg10 mi
1:30 PM90 °FSunny.10 mph9%29.83 "Hg10 mi
1:00 PM88 °FPassing clouds.6 mph13%29.86 "HgN/A
12:30 PM86 °FSunny.10 mph11%29.86 "Hg10 mi
12:00 PM86 °FSunny.8 mph13%29.86 "Hg10 mi
11:30 AM84 °FSunny.8 mph12%29.86 "Hg10 mi
11:00 AM84 °FSunny.10 mph13%29.86 "Hg10 mi
10:30 AM84 °FPassing clouds.3 mph12%29.86 "HgN/A
10:00 AM82 °FPassing clouds.3 mph14%29.86 "HgN/A
9:30 AM77 °FSunny.1 mph28%29.86 "Hg10 mi
9:00 AM75 °FSunny.1 mph24%29.86 "Hg10 mi
8:30 AM73 °FSunny.3 mph22%29.86 "Hg10 mi
8:00 AM70 °FPassing clouds.3 mph27%29.86 "HgN/A
7:30 AM66 °FPassing clouds.3 mph30%29.86 "HgN/A
7:00 AM64 °FSunny.1 mph32%29.86 "Hg10 mi
6:30 AM61 °FSunny.No wind36%29.83 "Hg10 mi
6:00 AM61 °FSunny.No wind36%29.83 "Hg10 mi
5:30 AM63 °FSunny.1 mph32%29.83 "Hg10 mi
5:00 AM61 °FClear.6 mph34%29.83 "Hg10 mi
4:30 AM63 °FClear.6 mph30%29.83 "Hg10 mi
4:00 AM61 °FClear.8 mph34%29.83 "Hg10 mi
3:30 AM63 °FClear.8 mph32%29.83 "Hg10 mi
3:00 AM64 °FClear.8 mph30%29.83 "Hg10 mi
2:30 AM64 °FClear.8 mph30%29.86 "Hg10 mi
2:00 AM66 °FClear.8 mph28%29.86 "Hg10 mi
1:30 AM66 °FClear.8 mph30%29.86 "Hg10 mi
1:00 AM64 °FClear.8 mph30%29.86 "Hg10 mi
12:30 AM64 °FClear.8 mph30%29.86 "Hg10 mi
12:00 AM66 °FClear.8 mph30%29.89 "Hg10 mi
11:30 PM
Jul 24
72 °FClear.6 mph23%29.89 "Hg10 mi
11:00 PM72 °FClear.3 mph22%29.89 "Hg3 mi
10:30 PM75 °FClear.6 mph15%29.89 "Hg3 mi
10:00 PM77 °FClear.3 mph14%29.89 "Hg10 mi
9:30 PM77 °FClear.3 mph15%29.89 "Hg10 mi
9:00 PM79 °FClear.3 mph13%29.86 "Hg10 mi
8:30 PM81 °FClear.3 mph12%29.86 "Hg10 mi
8:00 PM81 °FClear.6 mph14%29.86 "Hg10 mi
7:30 PM82 °FSunny.8 mph12%29.86 "Hg10 mi
7:00 PM84 °FSunny.6 mph12%29.86 "Hg10 mi
6:30 PM86 °FPassing clouds.6 mph11%29.86 "HgN/A
6:00 PM86 °FPassing clouds.8 mph11%29.86 "HgN/A
5:30 PM86 °FPassing clouds.8 mph9%29.86 "HgN/A
5:00 PM86 °FPassing clouds.8 mph9%29.86 "HgN/A
4:30 PM86 °FSunny.10 mph9%29.86 "Hg10 mi
4:00 PM86 °FSunny.10 mph10%29.86 "Hg10 mi
3:30 PM86 °FSunny.15 mph8%29.86 "Hg10 mi
3:00 PM86 °FPassing clouds.8 mph10%29.86 "HgN/A
Weather by CustomWeather, © 2014

See weather overviewHow to use our weather pages